This demonstration page uses our WeatherBlox Daily Observations layout. Learn more.

Hourly Observations for July 8, 2017

Temp ( °F °C ) Dew Point ( °F °C ) Humidity (%) Winds ( mph kmh ) Pressure ( in mb ) Visibility ( mi km ) Precip ( " mm )
12:18 am 00:18 Cloudy 67 19.4 67 19.4 100 100 S 3 6 29.94 1014 9 14.48406 0 0
12:31 am 00:31 Cloudy 67 19.4 67 19.4 100 100 Calm 29.91 1013 8 12.87472 0 0
12:39 am 00:39 Mostly Cloudy 67 19.4 67 19.4 100 100 SW 3 6 29.91 1013 9 14.48406 0 0
12:53 am 00:53 Partly Cloudy 67 19.4 66 18.9 97 97 Calm 29.9 1013 9 14.48406 0 0
1:40 am 01:40 Partly Cloudy with Mist and Fog 66 18.9 66 18.9 100 100 Calm 29.91 1013 5 8.0467 0 0
1:49 am 01:49 Mostly Cloudy with Mist and Fog 66 19 66 19 100 100 Calm 29.91 1013 5 8.0467 0 0
1:53 am 01:53 Mostly Cloudy with Mist and Fog 67 19.4 67 19.4 100 100 WSW 3 6 29.9 1012 6 9.65604 0 0
2:24 am 02:24 Cloudy with Mist and Fog 67 19.4 67 19.4 100 100 W 5 7 29.91 1013 5 8.0467 0 0
2:34 am 02:34 Cloudy 67 19.4 67 19.4 100 100 WSW 5 7 29.91 1013 7 11.26538 0 0
2:53 am 02:53 Cloudy 67 19.4 67 19.4 100 100 W 5 7 29.9 1013 7 11.26538 0 0
3:53 am 03:53 Cloudy 67 19.4 66 18.9 97 97 W 7 11 29.91 1013 10 16.0934 0 0
4:17 am 04:17 Cloudy 67 19.4 66 18.9 97 97 WNW 7 11 29.91 1013 10 16.0934 0 0
4:53 am 04:53 Cloudy 66 18.9 66 18.9 100 100 WNW 7 11 29.91 1013 9 14.48406 0 0
5:04 am 05:04 Cloudy 67 19.4 66 18.9 97 97 W 6 9 29.91 1013 10 16.0934 0 0
5:53 am 05:53 Cloudy 66 18.9 66 18.9 100 100 W 5 7 29.92 1013 9 14.48406 0 0
6:53 am 06:53 Cloudy 67 19.4 65 18.3 93 93 W 6 9 29.95 1014 9 14.48406 0 0
7:53 am 07:53 Mostly Cloudy 68 20 66 18.9 93 93 VRB 5 7 29.96 1014 10 16.0934 0 0
8:14 am 08:14 Partly Cloudy 68 20 66 18.9 93 93 W 5 7 29.97 1015 10 16.0934 0 0
8:53 am 08:53 Partly Cloudy 70 21.1 67 19.4 90 90 W 6 9 29.96 1015 10 16.0934 0 0
9:53 am 09:53 Partly Cloudy 73 22.8 67 19.4 81 81 WNW 6 9 29.97 1015 10 16.0934 0 0
10:53 am 10:53 Partly Cloudy 76 24.4 68 20 77 77 NW 5 7 29.98 1015 10 16.0934 0 0
11:53 am 11:53 Mostly Cloudy 76 24.4 67 19.4 74 74 WNW 9 15 29.98 1015 10 16.0934 0 0
12:53 pm 12:53 Partly Cloudy 79 26.1 64 17.8 60 60 NNW 6 9 29.98 1015 10 16.0934 0 0
1:53 pm 13:53 Partly Cloudy 81 27.2 64 17.8 57 57 NW 12 19 29.99 1016 10 16.0934 0 0
2:53 pm 14:53 Partly Cloudy 81 27.2 61 16.1 51 51 WNW 9 15 29.99 1016 10 16.0934 0 0
3:53 pm 15:53 Sunny 81 27.2 60 15.6 49 49 WNW 8 13 29.99 1016 10 16.0934 0 0
4:53 pm 16:53 Mostly Sunny 81 27.2 61 16.1 51 51 WNW 13 20 29.98 1015 10 16.0934 0 0
5:53 pm 17:53 Sunny 80 26.7 61 16.1 52 52 WNW 13 20 29.98 1015 10 16.0934 0 0
6:53 pm 18:53 Sunny 80 26.7 60 15.6 51 51 WNW 10 17 29.98 1015 10 16.0934 0 0
7:53 pm 19:53 Sunny 77 25 59 15 54 54 NW 9 15 29.99 1016 10 16.0934 0 0
8:53 pm 20:53 Sunny 71 21.7 63 17.2 76 76 Calm 30 1016 10 16.0934 0 0
9:53 pm 21:53 Clear 67 19.4 63 17.2 87 87 NW 3 6 30.02 1017 10 16.0934 0 0
10:53 pm 22:53 Clear 65 18.3 62 16.7 90 90 Calm 30.05 1018 10 16.0934 0 0
11:53 pm 23:53 Clear 63 17.2 61 16.1 93 93 NNW 3 6 30.06 1018 9 14.48406 0 0

Powered by AerisWeather